Regional Weather Roundup
Issued by NWS

Home | Current Version | Previous Version | Text Only | Print | Product List | Glossary Off
Versions: 1 2 3 4 5 6 7 8 9 10 11 12 13 14 15 16 17 18 19 20 21 22 23 24 25 26 27 28 29 30 31 32 33 34 35 36 37 38 39 40 41 42 43 44 45 46 47 48 49 50

329
ASUS44 KJAN 012210
RWRMS

MISSISSIPPI HOURLY WEATHER ROUNDUP
NATIONAL WEATHER SERVICE JACKSON MS
500 PM CDT MON SEP 01 2014

NOTE: "FAIR: INDICATES FEW OR NO CLOUDS BELOW 12,000 FEET WITH NO
SIGNIFICANT WEATHER AND/OR OBSTRUCTIONS TO VISIBILITY.

MSZ001>002-007>008-010>013-018>021-025>028-034>036-012300-
NORTHWEST MISSISSIPPI

CITY           SKY/WX    TMP DP  RH WIND       PRES   REMARKS
CLARKSDALE     FAIR      90  73  58 S10       29.96F HX  98
CLEVELAND      FAIR      89  75  62 S3        29.96F HX 100
GREENWOOD      SUNNY     91  73  55 S9        29.98F HX  99
GREENVILLE     PTSUNNY   89  73  59 S6        29.96F HX  97
GRENADA        FAIR      90  70  51 S8        29.98F HX  95
OLIVE BRANCH   MOSUNNY   88  73  62 S16       29.97F HX  96
OXFORD         FAIR      90  68  48 S7        30.00F HX  93
TUNICA         CLEAR     90  72  55 S12       29.96F HX  96
$$

MSZ003>006-009-014>017-022>024-029>033-037>039-012300-
NORTHEAST MISSISSIPPI

CITY           SKY/WX    TMP DP  RH WIND       PRES   REMARKS
BELMONT        FAIR      89  71  54 S7        30.01F HX  95
COLUMBUS AFB   SUNNY     92  69  47 SW5       30.00F HX  97
CORINTH        FAIR      90  68  48 S12       29.98F HX  93
GOLDN TRIANGLE MOSUNNY   93  70  46 SW7       30.01F HX  99
STARKVILLE     FAIR      91  66  43 SW5       30.00F HX  94
TUPELO         SUNNY     93  68  43 S9        29.98F HX  97
$$

MSZ040-058-012300-
CENTRAL MISSISSIPPI

CITY           SKY/WX    TMP DP  RH WIND       PRES   REMARKS
JACKSON INTL   CLOUDY    80  71  74 S9        30.02R
JACKSON HAWKNS LGT RAIN  80  72  76 SE16      30.03R
MERIDIAN KEY   MOSUNNY   91  67  44 SW8       30.01S HX  94
MERIDIAN NAS   MOSUNNY   92  70  48 S3        30.01F HX  97
RAYMOND        CLOUDY    81  75  83 MISG      30.02R THUNDER
VICKSBURG      PTSUNNY   81  72  74 S17       29.99R
$$

MSZ059>079-012300-
SOUTH MISSISSIPPI

CITY           SKY/WX    TMP DP  RH WIND       PRES   REMARKS
BROOKHAVEN     FAIR      77  77 100 CALM      30.06R THUNDER
HATTIESBURG    MOSUNNY   91  70  49 S9        30.01S HX  96
MCCOMB         CLOUDY    83  75  77 E5        30.02R HX  90
NATCHEZ        PTSUNNY   81  75  83 E6        30.00F
PINE BELT      PTSUNNY   88  70  55 S7        30.03R HX  92
$$

MSZ080>082-012300-
COASTAL MISSISSIPPI

CITY           SKY/WX    TMP DP  RH WIND       PRES   REMARKS
BAY ST LOUIS   MOSUNNY  N/A N/A N/A S16       30.01F
BILOXI         PTSUNNY   88  75  65 S12       30.01F HX  97
PASCAGOULA     MOSUNNY   86  76  71 S9        30.02S HX  96
GULFPORT       PTSUNNY   88  74  63 SE18      30.01S HX  96
$$



USA.gov is the U.S. government's official web portal to all federal, state and local government web resources and services.